Home > Weather > Mesquite > Past weeks

Flag for U.S.A. Weather for the Past 2 Weeks in Mesquite, Texas, U.S.A.

Now
48 °F

Clear.


Feels Like: 44 °F
Forecast: 50 / 71 °F
Wind: 10 mph from South

Location: Mesquite Metro Airport

Current Time: Feb 11, 2016 at 3:12:38 AM

Latest Report: Feb 11, 2016 at 2:35 AM


Visibility: 10 mi

Pressure: 30.04 "Hg

Humidity: 59%

Dew point: 35 °F

Location of MesquiteLocation

Historic Weather in Mesquite — Graph

°F

Mesquite Temperature Yesterday

Maximum temperature yesterday: 72 °F (at 4:50 PM)
Minimum temperature yesterday: 32 °F (at 7:50 AM)
Average temperature yesterday: 50 °F

High & Low Weather Summary for the Past Weeks

 TemperatureHumidityPressure
High75 °F (Jan 29, 1:50 PM)100% (Feb 7, 4:15 AM)30.52 "Hg (Feb 7, 4:15 AM)
Low30 °F (Jan 27, 6:50 AM)13% (Feb 8, 5:50 PM)29.54 "Hg (Feb 1, 5:50 PM)
Average48 °F55%30.12 "Hg
* Reported Jan 27 1:15 AM — Feb 11 1:35 AM, Mesquite, Weather by CustomWeather, © 2016

Note: Actual official high and low records may vary slightly from our data, if they occured in-between our weather recording intervals... More about our weather records

Advertising

Mesquite Weather History for the Previous 24 Hours

 ConditionsComfort  
Time TempWeatherWind HumidityBarometerVisibility
1:35 AM
Thu, Feb 11
50 °FClear.10 mph55%30.04 "Hg10 mi
1:15 AM51 °FClear.10 mph55%30.04 "Hg10 mi
12:55 AM52 °FClear.10 mph51%30.04 "Hg10 mi
12:35 AM53 °FClear.12 mph51%30.04 "Hg10 mi
12:15 AM54 °FClear.10 mph49%30.05 "Hg10 mi
11:55 PM
Wed, Feb 10
54 °FClear.12 mph47%30.05 "Hg10 mi
11:35 PM55 °FClear.12 mph46%30.06 "Hg10 mi
11:15 PM55 °FClear.12 mph47%30.06 "Hg10 mi
11:00 PM55 °FClear.12 mph47%30.06 "Hg10 mi
10:35 PM56 °FClear.13 mph46%30.07 "Hg10 mi
10:15 PM56 °FClear.12 mph45%30.07 "Hg10 mi
9:55 PM56 °FClear.12 mph45%30.08 "Hg10 mi
9:15 PM54 °FClear.9 mph50%30.08 "Hg10 mi
8:55 PM54 °FClear.10 mph48%30.09 "Hg10 mi
8:15 PM56 °FClear.10 mph45%30.09 "Hg10 mi
7:55 PM57 °FClear.10 mph45%30.09 "Hg10 mi
7:35 PM58 °FClear.10 mph43%30.09 "Hg10 mi
7:15 PM60 °FClear.10 mph40%30.09 "Hg10 mi
6:50 PM57 °FClear.9 mph41%30.09 "Hg10 mi
5:50 PM66 °FSunny.9 mph28%30.10 "Hg10 mi
4:50 PM72 °FSunny.14 mph22%30.11 "Hg10 mi
3:50 PM70 °FSunny.15 mph23%30.14 "Hg10 mi
2:50 PM68 °FSunny.15 mph24%30.17 "Hg10 mi
1:50 PM66 °FSunny.15 mph24%30.21 "Hg10 mi
12:50 PM63 °FSunny.17 mph27%30.26 "Hg10 mi
11:50 AM57 °FSunny.15 mph31%30.31 "Hg10 mi
10:50 AM52 °FSunny.13 mph35%30.34 "Hg10 mi
9:50 AM46 °FSunny.7 mph43%30.36 "Hg10 mi
8:50 AM41 °FSunny.5 mph61%30.35 "Hg10 mi
7:50 AM32 °FSunny.5 mph75%30.34 "Hg10 mi
6:50 AM34 °FClear.No wind70%30.35 "Hg10 mi
5:15 AM35 °FClear.No wind65%30.35 "Hg10 mi
4:55 AM35 °FClear.No wind65%30.34 "Hg10 mi
4:15 AM37 °FClear.No wind58%30.35 "Hg10 mi
3:55 AM39 °FClear.No wind52%30.34 "Hg10 mi
3:35 AM38 °FClear.No wind56%30.34 "Hg10 mi
3:15 AM39 °FClear.No wind53%30.34 "Hg10 mi
Weather by CustomWeather, © 2016

See weather overviewHow to use our weather pages